[Date Prev][Date Next][Thread Prev][Thread Next][Date Index][Thread Index]

[jamsat-news:1222] jas2info #171



========================   最新情報   ==============================

        Last updated :Sat.12-Feb.-2000 16:30 (JST) #171

====================================================================
   
  1)アマチュア通信衛星情報 FOシリーズの軌道要素、テレメトリ、
   QSOの状況等をまとめてみました.
   
   FO-29の2月12日(土)のテレメトリはJARLのホームページのスケジュールのとうり
  アナログ系運用、CWのテレメトリ運用周波数は435.796〜787MHzのUSBで
  12:56〜13:04(JST)に受信できました.それまでに当局で取得したデータの
  1部も掲載しておきます.

 AS17171C1
 08Feb2000
 12:54〜13:14(JST)
                                          
 HI HI AE C7 88 55 0A 41 0A 0D 00 35 85 45 94 60 92 90 B0 7E B5 B2 B4 B4 B4 
 HI HI AE C7 88 55 0F 41 FF 0D 00 35 6C 3C 93 60 92 90 B0 88 B4 B2 B4 B4 B4 
 HI HI AE C7 88 55 14 41 FF 25 00 35 4B 40 8F 60 92 90 B1 73 B4 B2 B4 B4 B4 
 HI HI AE C7 88 55 19 41 FF 0D 00 35 66 50 8D 5F 92 90 B0 80 B4 B2 B4 B4 B4 
 HI HI AE C7 88 55 1F 41 0A 0D 00 35 96 56 90 60 92 90 B0 6F B4 B1 B3 B4 B4 
 HI HI AE C7 88 55 04 41 FF 0D 00 35 7C 4D 8F 60 92 90 B0 7C B4 B1 B3 B4 B4 
 HI HI AE C7 88 55 09 41 FF 0D 00 35 3E 4C 8E 60 92 90 B0 7B B4 B1 B3 B4 B4 
 HI HI AE C7 88 55 0E 41 FF 1A 00 35 5A 5B 8A 5F 92 90 B0 93 B4 B1 B3 B3 B4 
 HI HI AE C7 88 55 13 41 FF 1A 00 35 A0 66 8D 5F 92 8F B0 85 B3 B0 B3 B3 B4 
 HI HI AE C7 88 55 18 41 FF 0D 00 35 76 65 8E 60 93 90 B0 83 B3 B0 B3 B3 B4 
 HI HI AE C7 88 55 1E 41 FF 0D 00 35 2E 65 8D 60 92 90 B0 68 B3 B0 B2 B3 B4 
 HI HI AE C7 88 55 13 41 FF 0D 00 35 5A 6B 88 60 93 91 B0 75 B3 B0 B2 B3 B4 
 HI HI AE C7 88 55 09 41 FF 0D 00 35       8D 60 93 91 B0 90 B3 B0 B2 B3 B4 
 HI HI AE C7 88 55 0D 41 FF 0D 00 35 81 82 8B 60 93 90 B0 93 B3 B0 B2 B3 B4 
 HI HI AE C7 88 55 13 41 FF 0D 00 35 36 88 88 60 93 91 B0 84 B3 B0 B2 B3 B4 
 HI HI AE C7 88 55 18 41 FF 0D 00 35 3D 82 7D 60 93 91 B0 90 B3 AF B2 B2 B4 
 HI HI AE C7 88 55 1D 41 FF 0D 00 35 92 80 7B 60 93 91 B0   
 
 AS17183C1   9Feb2000
 10:19〜10:33(JST)
 Freq.435.802〜789Hz

 HI HI AE C7 88 55 0D 41 FF 0D 00 35 7A 42 89 5F 92 90 B0 8A B5 B3 B5 B5 B5 
 HI HI AE C7 88 55 12 41 FF 0D 00 35 54 45 8B 60 92 8F B0 85 B5 B3 B5 B5 B5 
 HI HI AE C7 88 55 17 41 FF 0D 00 35 44 47 8C 5F 92 90 B1 85 B5 B3 B5 B5 B5 
 HI HI AE C7 88 55 1C 41 FF 0D 00 35 77 4C 87 60 92 90 B0 86 B5 B3 B4 B4 B5 
 HI HI AE C7 88 55 01 41 FF 25 00 35 87 49 8D 5F 92 90 B0 77 B5 B2 B4 B4 B5 
 HI HI AE C7 88 55 0C 41 FF 0D 00 35 46 58 91 60 92 90 B0 86 B4 B2 B4 B4 B5 
 HI HI AE C7 88 55 11 41 FF 0D 00 35 83 60 87 60 92 90 B0 70 B4 B2 B4 B4 B5 
 HI HI AE C7 88 55 17 41 FF 0D 00 35 94 58 8C 60 92 90 B0 80 B4 B2 B3 B4 B5 
 HI HI AE C7 88 55 1C 41 FF 0D 00 35 52 53 8B 60 93 90 B0 90 B4 B2 B3 B4 B5 
 HI HI AE C7 88 55 01 41 FF 0D 00 35 38 65 87 60 93 90 B0 85 B4 B2 B3 B4 B5 
 HI HI AE C7 88 55 06 41 0A 0D 00 35 80 79 80 60 93 90 B0 85 B4 B1 B3 B3 B5
 HI HI AE C7 88 55 0C 41 FF 0D 00 35 77 71 8A 60 93 90 B0 6E B3 B1 B3 B3 B5 
 HI HI AE C7 88 55 11 41 FF 1E 00 35 53 62 85 60 93 91 B0 7F B3 B1 B3 B3 B5 
 HI HI AE C7 88 55 16 41 0A 0D 00 35 32 76 80 60 93 91 B0 8B B3 B1 B3 B3 B5 
 HI HI AE C7 88 55 1C 41 FF 0D 00 35 7E 8F 79 60 93 91 B0 83 B3 B1 B3 B3 B5 
 HI HI AE C7 88 55 01 41 FF 0D 00 35 9F 89 85 60 93 91 B0 82 B3 B0 B2 B3 B5 
 HI HI AE C7 88 55 06 41 FF 0D 00 35 55 7B 82 60 93 91 B0 6F B3 B0 B2 B3 B5 

 AS17184C1   9Feb2000
 12:14〜12:19(JST)
                                             60 93 90 B0 78 B4 B1 B3 B4 B5 
 HI HI AE C7 88 55 0E 41 FF 0D 00 35 A4 6E 8D 60 93 90 B0 6D B4 B1 B3 B3 B5 
 HI HI AE C7 88 55 13 41 FF 0D 00 35 61 65 8C 60 93 91 B0 77 B4 B1 B3 B3 B5 
 HI HI AE C7 88 55 18 41 FF 0D 00 35 2D 69 89 60 93 90 B0 81 B3 B1 B3 B3 B5 
 HI HI AE C7 88 55 1E 41 FF 0N 00 35 Q3 77 83 60 93 90 B0 83 B3 B0 63 B3 B5 
 HI HI AE C7 88 55 03 41 FF 0D 00 35 A7 81 87 60 93 90 B0 8E B3 B0 B2 B3 65 
 HI HI AE C7 88 55 08 41 FF 0D 00 35 61 86 87 60 93 91 B0 7D B3 B0 B2 B3 B5 
 HI HI AE C7 88 55 0E 41 FF 0D 00 35 2B 85 84 60 93 91 B0 8D B3 B0 B2 B3 B5 
 HI HI AE C7 88 55 18 41 FF 0D 00 35 
 
 AS17225C1  12Feb2000
 12:56 〜13:04(JST)

 HI HI AE C7 88 55 0B 41 FF 0D 00 35 6A 39 88 60 92 90 B0 69 B6 B3 B5 B6 B6 
 HI HI AE C7 88 55 11 41 FF 0D 00 35 83 3F 8C 60 92 90 B0 66 B6 B3 B5 B6 B6 
 HI HI AE C7 88 55 16 41 FF 0D 00 35 55 46 8F 5F 92 90 B0 72 B6 B3 B5 B6 B6 
 HI HI AE C7 88 55 1A 41 FF 0D 00 35 5B 4B 89 60 92 90 B0 75 B6 B3 B5 B6 B6 
 HI HI AE C7 88 55 00 41 FF 0D 00 35 5F       60 92 90 B0    B6 B3 B5 B6 B6 
 HI HI AE C7 88 55 06 41 FF 0D 00 35          60 93 90 B0 AE B5 B2 B4 B5 B6 
 HI HI AE C7 88 55 1A 41 FF 25 00 35 33 5F 89 60 93 90 B0 68 B5 B2 B4 B5 B6 
 HI HI AE C7 88 55 1F 41 FF 1A 00 35 97 4C 81 60 93 90 B0 BC B5 B2 B4 B4 B6 
 HI HI AE C7 88 55 04 41 FF 0D 00 35 7B 72 8C 60 93 91 B0 72 B5 B2 B4 B4 B6 
 HI HI AE C7 88 55 0A 41 0A 0D 00 35 29 7B 8B 60 93 91 B0 7C B4 B2 B3 B4 B6 
 HI HI AE C7 88 55 0F 41 0A 0D 00 35 85 5F 7E 60 93 91 B0 94 B4 B2 B3 B4 B6 
 HI HI AE C7 88 55 14 41 FF 0D 00 35 94 77 88 60 93 91 B0 75 B4 B1 B3 B4 B6 
 HI HI AE C7 88 55 14 41 FF 2D 00 35 2F 8E 8B 60 93 91 B0 6C B4 B1 B3 B4 B6
  
------------------------- FO-29の軌道要素 -----------------------------------------        
 
  ■ 軌道要素1:「jamsat−keps:966」より              
            SB KEPS @ AMSAT  $ORB00042.N
                  2Line Orbital Elements 00042.AMSAT

 HR AMSAT ORBITAL ELEMENTS FOR AMATEUR SATELLITES IN NASA FORMAT
 FROM WA5QGD FORT WORTH,TX February 11, 2000
 SEND SUBSCRIBE/UNSUBSCRIBE TO majordomo@amsat.org ONLY
 BID: ORB00042.N

 DECODE 2-LINE ELSETS WITH THE FOLLOWING KEY:
 1 AAAAAU 00  0  0 BBBBB.BBBBBBBB  .CCCCCCCC  00000-0  00000-0 0  DDDZ
 2 AAAAA EEE.EEEE FFF.FFFF GGGGGGG HHH.HHHH III.IIII JJ.JJJJJJJJKKKKKZ
 KEY: A-CATALOGNUM B-EPOCHTIME C-DECAY D-ELSETNUM E-INCLINATION F-RAAN
 G-ECCENTRICITY H-ARGPERIGEE I-MNANOM J-MNMOTION K-ORBITNUM Z-CHECKSUM

 TO ALL RADIO AMATEURS BT

 FO-29
 1 24278U 96046B   00040.79023061 -.00000029  00000-0  69782-5 0 03320
 2 24278 098.5885 325.4889 0350856 199.0797 159.6917 13.52698657171937
  
 ■ 軌道要素2:「jamsat−keps:967」より                         
         SB KEPS @ AMSAT  $ORB00042.O
             Orbital Elements  00042.OSCAR

 HR AMSAT ORBITAL ELEMENTS FOR OSCAR SATELLITES
 FROM WA5QGD FORT WORTH,TX February 11, 2000
 SEND SUBSCRIBE/UNSUBSCRIBE TO majordomo@amsat.org ONLY
 BID: ORB00042.O
 TO ALL RADIO AMATEURS BT

  Satellite: FO-29
 Catalog number: 24278
 Epoch time:      00040.79023061
 Element set:    0332
 Inclination:      098.5885 deg
 RA of node:       325.4889 deg
 Eccentricity:    0.0350856
 Arg of perigee:   199.0797 deg
 Mean anomaly:     159.6917 deg
 Mean motion:   13.52698657 rev/day
 Decay rate:       -2.9e-07 rev/day^2
 Epoch rev:           17193
 Checksum:              359
-------------------  FO-29(JAS-2)のテレメトリに関する情報  ------------------------
 
 2)上記の2月12日(土)の12:45(JST)のパスのCWテレメトリの最終行の分析結果です.

 AS17225C1  12Feb2000
 12:56 〜13:04JST

 HI HI AE C7 88 55 14 41 FF 2D 00 35 2F 8E 8B 60 93 91 B0 6C B4 B1 B3 B4 B6
 
 テレメトリ    内   容        換算値   単 位
 3C	磁気センサーZ軸=	23039.2	[nT]
 3D	磁気センサX軸 =	69607.8	[nT]
 4A	太陽電池発生電流=	 1362.8	[mA]
 4B	B充放電電流	=	 -118.4	[mA]
 4C	B端子電圧	=	   15.8	[V]
 4D	B中間端子電圧	=	    7.0	[V]
 5A	バス電圧 	=	   17.3	[V]
 5B	JTA送信電力	=	  603.9	[mW]
 5C 	構体温度1	=	   12.0	[℃]
 5D	構体温度2	=	   13.1	[℃]
 6A	構体温度3	=	   12.4	[℃]
 6B	構体温度4	=	   12.0	[℃]
 6C	Bセル温度	=	   11.2	[℃]

 * OSはWindows 2000,Office 2000 にて計算処理.

 ==================================================================================

 3)JARL のホームページに運用予定が記載されていましたのでご紹介します.
       ( http://www.jarl.or.jp/Japanese/3_Fuji/uy.htm )

        ■ ふじ3号/FOー29/JAS-2 ■  
   
     *** 運用予定について ***
    
  2月07日 〜 02月21日   アナログ系運用
  2月22日 〜 02月27日   デジタル系1200bpsメールボックス運用
  2月28日 〜 03月05日   アナログ系運用

 *なお,運用予定は都合により変更することがありますのでご了承願います。

 照会先 : lab@jarl.or.jp

 最新の情報はテレホンサービス(:03−3942−1000)をお聞きください。
   
 以後の運用に付きましては2月下旬にお知らせいたします。

-----------------------    FO-20(JAS-1b)道要素   -------------------------------
 4)
 ■ 軌道要素1 :出典はFO-29「ふじ3号」に同じ.
  
  FO-20
 1 20480U 90013C   00040.97355774 -.00000068  00000-0 -76851-4 0  2033
 2 20480  99.0323 195.5052 0540884 345.7347  12.8984 12.83262316468836
 
 ■ 軌道要素2 :出典はFO-29「ふじ3号」に同じ.
               
  Satellite: FO-20
 Catalog number: 20480
 Epoch time:      00040.97355774
 Element set:     203
 Inclination:       99.0323 deg
 RA of node:       195.5052 deg
 Eccentricity:    0.0540884
 Arg of perigee:   345.7347 deg
 Mean anomaly:      12.8984 deg
 Mean motion:   12.83262316 rev/day
 Decay rate:       -6.8e-07 rev/day^2
 Epoch rev:           46883
 Checksum:              308

--------------  FO-20(JAS-1b)のテレメトリとQSOに関する情報  --------------------
 
 5)2月12日(土)の15:12(JST)のパスでは前回観測のような唸りはありませんでしたが
   単一正弦波状の音がテレメトリとして観測されました。しかしアナログQSOは正常で活発に
   行われておりました。

--------------------------------------------------------------------------------
 6)         ■ ふじ2号/FO−20/JAS-1b ■      
            
          「ふじ2号」 現況                                                                                  
             
   JAS-1b(ふじ2号)のCWテレメトリ信号に,1997年10月12日12時(JST)の
 日本上空通過時,3桁の数字が繰り返されるはずが3個の長音の繰り返しとなっているという
 異常が発見されました。この不具合は次の通過時からは回復していましたが13日15時20分の
 通過時に再び観測されました。現在はA0の送信が続いています。衛星のアナログ系中継モード
 動作は異常が無く,正常時のテレメトリ内容からは衛星の動作に異常は認められません。従って,
 直ちに衛星のミッションに影響することは無いと予想されますので,当面はアナログ系中継
 モードを継続します。衛星は既に打ち上げてから7年8ヶ月を経ておりますので,今後は監視を
 強化する予定です。アマチュア各位のレポートをお待ちします。
-------------------------------------------------------------------------------- 
  1997年10月14日 00時35分 確認のテレメトリ音 151 KB (A0) 
  1997年10月14日 11時10分 確認のテレメトリ音 216 KB (異常キーイング) 

  以上 JARLのホ−ムページの http://www.jarl.or.jp/Japanese/3_Fuji/fuji.htm
                                           
   =============   JAS-2 (ふじ3号)と現在までの情報   ===========
  
  A.電話によるふじ3号の運用情報
      社団法人日本アマチュア連盟によるサービス
           TEL .   03− 3942 − 1000
  B.アマチュア無線FAXサービス
      JARLによるふじ3号の軌道情報(オービットカレンダー)
         FAX No.  03− 3233 −0055
  C.WWWブラウザで情報を簡単に見れる人のためにJAS−2
     ふじ3号の衛星としての運用されるまでの名前)の概要、打ち上げ
     までの状況、運用中における状況を説明したホームページを紹介し
     ておきます.
     社団法人日本アマチュア無線連盟(JARL)のホームページ

          http://www.jarl.or.jp/Japanese/3_Fuji
 
     宇宙開発事業団(NASDA)ホームページ 
          http://www.nasda.go.jp/
         打上げ衛星 :地球観測プラットフォーム技術衛星(ADEOS) 
                       アマチュア衛星3号(JAS-2)
          http://yyy.tksc.nasda.go.jp/Home/Press/Press-j/jas-2_j.html        

  D.JAMSATによる軌道情報の活用
        JAMSATのホームページまたはjamsat−kepsの軌道要素より
      衛星の軌道情報を得る.
     JAMSATホームページ
               URL    http://www.jamsat.or.jp
       上記ホームページでは各地で行われるアマチュア通信衛星に関する
      ミューティングのお知らせや世界のアマチュア衛星に関する情報が
      満載されています.
 =========================================================================  
     JAMSATのメンバーのご協力によりJH6MME(高山 秀造)が
    執筆・編集を担当しております.ご指摘の意見、疑問やこのようにしたら
    というアイデアがありましたら小さなことでもかまいませんので気軽に下
    記アドレスまでご連絡ください.jamsat−newsからjas2
    infoへの転載をJH4PHW局坂井さんに担当して頂いております.  
                  E-mail : jh6mme@jamsat.or.jp : jh4phw@jamsat.or.jp
 ===============================   END  ===============================